Regional Weather Roundup
Issued by NWS

Home | Current Version | Previous Version | Text Only | Print | Product List | Glossary Off
Versions: 1 2 3 4 5 6 7 8 9 10 11 12 13 14 15 16 17 18 19 20 21 22 23 24 25 26 27

000
ASUS45 KBOU 260507
RWRCO

WEATHER ROUNDUP FOR COLORADO
NATIONAL WEATHER SERVICE DENVER/BOULDER CO
1100 PM MDT SUN JUN 25 2017

NOTE: "FAIR" INDICATES FEW OR NO CLOUDS BELOW 12000 FEET WITH NO
SIGNIFICANT WEATHER AND/OR OBSTRUCTIONS TO VISIBILITY.

COZ001>005-013-030-031-260600-
...NORTHWEST COLORADO...

CITY           SKY/WX    TMP DP  RH WIND       PRES   REMARKS
CRAIG          FAIR      54  38  54 CALM      30.29R
HAYDEN         FAIR      55  30  38 S7        30.31S
MEEKER         FAIR      56  33  42 NE7       30.29R
RABBIT EARS PA FAIR      50  25  37 NE8G16    30.59S
STEAMBOAT SPGS FAIR      58  33  38 CALM      30.34S
WALDEN         FAIR      54  28  37 NW5       30.45F
$$

COZ006>008-011-260600-
...WEST CENTRAL VALLEYS...

CITY           SKY/WX    TMP DP  RH WIND       PRES   REMARKS
GRAND JUNCTION FAIR      83  26  12 NE15G28   30.10R
MONTROSE       FAIR      70  32  24 S10       30.21R
EAGLE          FAIR      63  33  32 NE6       30.33R
RIFLE          FAIR      68  27  21 SE7       30.21R
DELTA          FAIR      81  26  13 NE10      30.15R
NUCLA          FAIR      70  14  11 E12       30.23S
$$

COZ017>023-064>068-260600-
...SOUTHWEST COLORADO...

CITY           SKY/WX    TMP DP  RH WIND       PRES   REMARKS
DURANGO        FAIR      69  34  27 S3        30.25R
CORTEZ         FAIR      60  32  34 E5        30.20R
PAGOSA SPRINGS FAIR      64  34  32 NE6       30.37R
TELLURIDE      FAIR      60  26  27 CALM      30.49R
WOLF CREEK PAS FAIR      50  30  46 W6        30.74R
$$

COZ009-010-012-014-032>034-037-058>063-260600-
...CENTRAL COLORADO...

CITY           SKY/WX    TMP DP  RH WIND       PRES   REMARKS
ASPEN          FAIR      54  32  43 S7        30.39R
BUENA VISTA    MOCLDY    63  48  58 E3        30.44S
COPPER MTN     FAIR      54  27  35 W5        30.70F
BERTHOUD PASS  FAIR      41  28  60 NW10G18   30.71F
COTTONWOOD PAS FAIR      57  46  67 E7        30.57R
GUNNISON       FAIR      61  34  36 CALM      30.36R
KREMMLING      NOT AVBL
LEADVILLE      FAIR      49  26  41 S5        30.54R
MONARCH PASS   LGT RAIN  45  45 100 E24       30.78R
SALIDA         MOCLDY    64  53  69 E9        30.49R
SUNLIGHT       FAIR      50  21  32 NE3       30.64S
WILKERSON PASS FOG       45  43  93 E3        30.69R VSB 1/4
$$

COZ069>075-260600-
...SAN LUIS VALLEY/SANGRE DE CRISTO MOUNTAINS...

CITY           SKY/WX    TMP DP  RH WIND       PRES   REMARKS
ALAMOSA        FAIR      62  48  60 E23G31    30.34R
DEL NORTE      FAIR      63  46  54 NE5       30.39R
LA VETA PASS   DRZL/FOG  48  46  93 NE13G20   30.70R VSB<1/4
SAGUACHE       FAIR      63  45  51 NW3       30.39R
$$

COZ035-036-038>040-260600-
...NORTHERN COLORADO FRONT RANGE...

CITY           SKY/WX    TMP DP  RH WIND       PRES   REMARKS
DENVER INTL AP FAIR      58  51  78 E9        30.34R
DMNS CITY PARK   N/A     62  53  70 E9G16     30.33S
AURORA         PTCLDY    57  53  87 E8        30.35S
FRONT RANGE AP FAIR      59  52  77 E13       30.36R
ERIE MUNI ARPT CLOUDY    65  54  67 E6        30.33S
BOULDER MUN AP CLOUDY    63  52  67 CALM      30.34R
CENTENNIAL     FAIR      61  55  81 SE6       30.35S
BROOMFIELD     CLOUDY    63  54  72 E6        30.36S
FORT COLLINS   FAIR      60  54  80 SE6       30.33R
LONGMONT       MOCLDY    61  53  74 W3        30.35S
$$

COZ041-046-047-076>085-087-088-260600-
...PIKES PEAK/PALMER DIVIDE AND SOUTHERN FOOTHILLS...

CITY           SKY/WX    TMP DP  RH WIND       PRES   REMARKS
COLO. SPRINGS  CLOUDY    60  58  92 SE16      30.40R
A. F. ACADEMY  CLOUDY    60  55  85 E14       30.40R
SCHRIEVER AFB  MOCLDY    58  56  94 E8        30.40R
CHEYENNE MTN   LGT RAIN  56  55  96 S10       30.38R
ELLICOTT       MOCLDY   N/A N/A N/A SE13      30.37F
FALCON           N/A     57  55  91 SE15      30.44S
FORT CARSON    CLOUDY    61  57  88 SE7       30.37R
LIMON          CLOUDY    57  55  93 SE8       30.37R
MONUMENT HILL  CLOUDY    55  52  88 SE10      30.44R
CANON CITY     CLOUDY    66  61  82 NE9       30.34R
WALSENBURG     CLOUDY    64  61  88 N7        30.37R
TRINIDAD       HVY RAIN  62  56  80 NW21      30.33R VSB 1
$$

COZ042>045-048>051-090-091-260600-
...NORTHEAST COLORADO...

CITY           SKY/WX    TMP DP  RH WIND       PRES   REMARKS
GREELEY ARPT   FAIR      60  55  83 SE7       30.32S
AKRON          FAIR      56  53  90 S8        30.32S
BURLINGTON     CLOUDY    60  58  92 SE7       30.32S
WRAY           MOCLDY    59  59 100 S5        30.30S
YUMA           FAIR      54  52  94 S5        30.31S
STERLING       FAIR      55  54  94 SW6       30.28F
HOLYOKE        NOT AVBL
FORT MORGAN    FAIR      56  53  88 S6        30.32S
$$

COZ086-089-092>099-260600-
...SOUTHEAST COLORADO...

CITY           SKY/WX    TMP DP  RH WIND       PRES   REMARKS
PUEBLO         CLOUDY    67  58  72 E13       30.30R
LA JUNTA       CLOUDY    64  60  87 E15       30.27S
LAMAR          CLOUDY    63  56  78 SE14      30.27S
SPRINGFIELD      N/A     61  60  97 E9        30.28R
$$




USA.gov is the U.S. government's official web portal to all federal, state and local government web resources and services.